Location: Fernhill
(41.0167°S, 175.6333°E)
Time: 09:40:44
(UTC+00:00)

Okean O Rocket - Pass Details

Date: 08 November 2025
Orbit: 614 x 635 km, 98.0° (Epoch: 11 December)

Event Time Altitude Azimuth Distance (km) Brightness Sun altitude
Rises 09:29:42 0° 162° (SSE) 2,923 5.5 -22.4°
Reaches altitude 10° 09:31:58 10° 156° (SSE) 2,010 4.5 -22.7°
Enters shadow 09:35:21 42° 116° (ESE) 902 2.2 -23.1°
